Regional Weather Roundup
Issued by NWS

Home | Current Version | Previous Version | Text Only | Print | Product List | Glossary Off
Versions: 1 2 3 4 5 6 7 8 9 10 11 12 13 14 15 16 17 18 19 20 21 22 23 24 25 26 27 28 29 30 31 32 33 34 35 36 37 38 39 40 41 42 43 44 45 46 47 48 49 50

516
ASUS45 KBOU 241807
RWRCO

WEATHER ROUNDUP FOR COLORADO
NATIONAL WEATHER SERVICE DENVER/BOULDER CO
1200 PM MDT MON APR 24 2017

NOTE: "FAIR" INDICATES FEW OR NO CLOUDS BELOW 12000 FEET WITH NO
SIGNIFICANT WEATHER AND/OR OBSTRUCTIONS TO VISIBILITY.

COZ001>005-013-030-031-241900-
...NORTHWEST COLORADO...

CITY           SKY/WX    TMP DP  RH WIND       PRES   REMARKS
CRAIG          FAIR      54  37  52 VRB5      29.74F
HAYDEN         FAIR      50  34  53 SE3       29.75F
MEEKER         FAIR      60  20  21 SW20G33   29.73F
MOUNT WERNER   NOT AVBL
STEAMBOAT SPGS FAIR      48  34  57 CALM      29.76F
WALDEN           N/A     46  28  49 SW13G20   29.79F
$$

COZ006>008-011-241900-
...WEST CENTRAL VALLEYS...

CITY           SKY/WX    TMP DP  RH WIND       PRES   REMARKS
GRAND JUNCTION PTSUNNY   63  31  30 CALM      29.70F
MONTROSE       FAIR      65  25  22 CALM      29.74F
EAGLE          PTSUNNY   57  28  33 W16G29    29.76F
RIFLE          PTSUNNY   61  31  32 W9        29.73F
DELTA          FAIR      67  27  22 E3        29.73F
NUCLA          PTSUNNY   63  23  22 SW17G26   29.81F
$$

COZ017>023-064>068-241900-
...SOUTHWEST COLORADO...

CITY           SKY/WX    TMP DP  RH WIND       PRES   REMARKS
DURANGO        FAIR      61  20  20 SW17G24   29.87F
CORTEZ         FAIR      63  23  21 SW12      29.82F
PAGOSA SPRINGS FAIR      60  16  17 SW16G25   29.90F
TELLURIDE      CLOUDY    51  17  26 W10G20    29.93F
WOLF CREEK PAS FAIR      36  19  51 S23G39    30.06S
$$

COZ009-010-012-014-032>034-037-058>063-241900-
...CENTRAL COLORADO...

CITY           SKY/WX    TMP DP  RH WIND       PRES   REMARKS
ASPEN          PTSUNNY   53  26  35 S15G30    29.81F
BUENA VISTA    PTSUNNY   55  16  20 W13G24    29.80F
COPPER MTN     PTSUNNY   37  18  44 W15G24    29.95S
BERTHOUD PASS  FAIR      30  19  64 W32G49    29.91F WCI  15
COTTONWOOD PAS FAIR      50  10  20 W29G55    29.85F
GUNNISON       FAIR      58  20  22 W21       29.81F
KREMMLING      FAIR      59  25  27 SW15G26   29.78F
LEADVILLE      FAIR      45  12  26 SW14G26   29.87F
MONARCH PASS   CLOUDY    34  19  55 SW28G39   30.08F WCI  20
SALIDA         PTSUNNY   62  16  17 W20G26    29.87F
SUNLIGHT       LGT SNOW  34  25  69 SW18G25   29.94F WCI  23
WILKERSON PASS FAIR      45  10  24 SW20G32   29.93R
$$

COZ069>075-241900-
...SAN LUIS VALLEY/SANGRE DE CRISTO MOUNTAINS...

CITY           SKY/WX    TMP DP  RH WIND       PRES   REMARKS
ALAMOSA        FAIR      65  15  14 SW15G26   29.82F
LA VETA PASS   FAIR      52  19  28 S26       30.01F
SAGUACHE       FAIR      61  18  18 NW14G24   29.82F
$$

COZ035-036-038>040-241900-
...NORTHERN COLORADO FRONT RANGE...

CITY           SKY/WX    TMP DP  RH WIND       PRES   REMARKS
DENVER INTL AP PTSUNNY   64  32  30 E13       29.67F
DMNS CITY PARK   N/A     63  33  32 NE15      29.66F
AURORA         PTSUNNY   61  33  34 E12       29.69F
FRONT RANGE AP PTSUNNY   64  32  29 NE13      29.70F
ERIE MUNI ARPT FAIR      65  31  28 E8G20     29.65F
BOULDER MUN AP FAIR      64  34  32 E8        29.65F
CENTENNIAL     PTSUNNY   62  34  35 E9        29.68F
BROOMFIELD     MOSUNNY   64  36  34 E9        29.69F
FORT COLLINS   FAIR      63  30  28 CALM      29.66F
LONGMONT       FAIR      68  34  29 SE8       29.66F
$$

COZ041-046-047-076>085-087-088-241900-
...PIKES PEAK/PALMER DIVIDE AND SOUTHERN FOOTHILLS...

CITY           SKY/WX    TMP DP  RH WIND       PRES   REMARKS
COLO. SPRINGS  PTSUNNY   69  22  16 E9        29.68F
A. F. ACADEMY  FAIR      66  14  13 NW18G30   29.68F
SCHRIEVER AFB  FAIR      67  22  18 E5        29.69F
ELLICOTT       FAIR     N/A N/A N/A SW18G24   29.69F
FALCON         FAIR      65  20  18 S8G16     29.73F
FORT CARSON    FAIR      70  19  14 SW24G31   29.65F
LIMON          FAIR      65  35  33 N13G21    29.69F
MONUMENT HILL  FAIR      57  32  38 E8        29.75F
TRINIDAD       FAIR      70  15  12 CALM      29.71F
$$

COZ042>045-048>051-090-091-241900-
...NORTHEAST COLORADO...

CITY           SKY/WX    TMP DP  RH WIND       PRES   REMARKS
GREELEY ARPT   FAIR      66  29  24 N7        29.66F
AKRON          FAIR      64  31  28 N20G25    29.68S
BURLINGTON     NOT AVBL
WRAY           NOT AVBL
STERLING       PTSUNNY   64  34  32 N14G21    29.65S
HOLYOKE        FAIR      70  41  35 N18G28    29.63S
FORT MORGAN    FAIR      68  27  21 NW16      29.67F
$$

COZ086-089-092>099-241900-
...SOUTHEAST COLORADO...

CITY           SKY/WX    TMP DP  RH WIND       PRES   REMARKS
PUEBLO         FAIR      71  31  22 SE9       29.63F
LA JUNTA       FAIR      73  34  23 SE8       29.66F
LAMAR          FAIR      74  40  29 VRB7      29.64F
SPRINGFIELD      N/A     77  28  16 NW6       29.66F
$$




USA.gov is the U.S. government's official web portal to all federal, state and local government web resources and services.